This is the latest recevied weather packets stored in our database for station/object W4SNA-3. If no packets are shown the sender has not sent any weather packets the latest 10 day(s).
| Time | Temp. | Humidity | Pressure | Rain* | Wind** | Luminosity | Snow |
|---|---|---|---|---|---|---|---|
| 1777314447 | 16.67° C | 58% | 1020.3 hPa | 0 mm | - | - | - |
| 1777314144 | 16.67° C | 60% | 1020.3 hPa | 0 mm | - | - | - |
| 1777313872 | 16.67° C | 56% | 1020.4 hPa | 0 mm | - | - | - |
| 1777313546 | 17.22° C | 58% | 1020.5 hPa | 0 mm | - | - | - |
| 1777313249 | 16.67° C | 59% | 1020.4 hPa | 0 mm | - | - | - |
| 1777312993 | 17.22° C | 57% | 1020.3 hPa | 0 mm | - | - | - |
| 1777312644 | 17.22° C | 59% | 1020.4 hPa | 0 mm | - | - | - |
| 1777312344 | 16.67° C | 62% | 1020.5 hPa | 0 mm | - | - | - |
| 1777312044 | 16.11° C | 62% | 1020.5 hPa | 0 mm | - | - | - |
| 1777311745 | 16.11° C | 63% | 1020.6 hPa | 0 mm | - | - | - |
| 1777311444 | 16.11° C | 64% | 1020.6 hPa | 0 mm | - | - | - |
| 1777311054 | 16.11° C | 66% | 1020.6 hPa | 0 mm | - | - | - |
| 1777310757 | 16.11° C | 61% | 1020.6 hPa | 0 mm | - | - | - |
| 1777310454 | 16.11° C | 61% | 1020.7 hPa | 0 mm | - | - | - |
| 1777310155 | 16.11° C | 59% | 1020.8 hPa | 0 mm | - | - | - |
| 1777309854 | 16.11° C | 65% | 1020.9 hPa | 0 mm | - | - | - |
| 1777309554 | 16.11° C | 62% | 1021.1 hPa | 0 mm | - | - | - |
| 1777309254 | 16.11° C | 66% | 1021 hPa | 0 mm | - | - | - |
| 1777308955 | 16.11° C | 64% | 1021.1 hPa | 0 mm | - | - | - |
| 1777308657 | 16.11° C | 67% | 1021.1 hPa | 0 mm | - | - | - |
| 1777308181 | 15° C | 67% | 1021 hPa | 0 mm | - | - | - |
| 1777307679 | 15° C | 68% | 1021 hPa | 0 mm | - | - | - |
| 1777307397 | 15° C | 65% | 1020.9 hPa | 0 mm | - | - | - |
| 1777307079 | 15° C | 66% | 1020.9 hPa | 0 mm | - | - | - |
| 1777306547 | 14.44° C | 69% | 1021.2 hPa | 0 mm | - | - | - |
* Rain latest hour (hover to see other rain measurements)
** Current wind speed in m/s (hover to see current wind gust speed)